| time (UTC) | temp F | wind direction | speed MPH | gust MPH | rain 1hr in | rain 24hr in | rain mn in | humidity % | barometer mb |
| 20260503020028 | 70 | 102 | 0.0 | 1.0 | 0.00 | 0.00 | 0.00 | 46 | 998.0 |
| 20260503014538 | 71 | 114 | 0.0 | 1.0 | 0.00 | 0.00 | 0.00 | 45 | 998.0 |
| 20260503013027 | 71 | 63 | 0.0 | 1.0 | 0.00 | 0.00 | 0.00 | 44 | 997.9 |
| 20260503011526 | 72 | 62 | 0.0 | 1.0 | 0.00 | 0.00 | 0.00 | 43 | 997.8 |
| 20260503010025 | 73 | 95 | 0.0 | 1.0 | 0.00 | 0.00 | 0.00 | 42 | 997.7 |
| 20260503004525 | 73 | 69 | 0.0 | 2.0 | 0.00 | 0.00 | 0.00 | 40 | 997.6 |
| 20260503003024 | 74 | 42 | 0.0 | 2.0 | 0.00 | 0.00 | 0.00 | 39 | 997.5 |
| 20260503001524 | 75 | 266 | 0.0 | 1.0 | 0.00 | 0.00 | 0.00 | 37 | 997.4 |
| 20260503000026 | 76 | 4 | 0.0 | 1.0 | 0.00 | 0.00 | 0.00 | 35 | 997.4 |
| 20260502234521 | 77 | 30 | 0.0 | 1.0 | 0.00 | 0.00 | 0.00 | 34 | 997.5 |
| 20260502233021 | 77 | 250 | 0.0 | 1.0 | 0.00 | 0.00 | 0.00 | 34 | 997.6 |
| 20260502231521 | 78 | 359 | 0.0 | 1.0 | 0.00 | 0.00 | 0.00 | 33 | 997.6 |
| 20260502230021 | 78 | 77 | 0.0 | 1.0 | 0.00 | 0.00 | 0.00 | 33 | 997.6 |
| 20260502224519 | 79 | 335 | 0.0 | 0.0 | 0.00 | 0.00 | 0.00 | 33 | 997.6 |
| 20260502223019 | 79 | 314 | 0.0 | 1.0 | 0.00 | 0.00 | 0.00 | 33 | 997.7 |
| 20260502221518 | 79 | 299 | 0.0 | 1.0 | 0.00 | 0.00 | 0.00 | 33 | 997.8 |
| 20260502220024 | 78 | 102 | 0.0 | 1.0 | 0.00 | 0.00 | 0.00 | 33 | 997.8 |
| 20260502214516 | 79 | 323 | 0.0 | 1.0 | 0.00 | 0.00 | 0.00 | 33 | 998.0 |
| 20260502213015 | 78 | 97 | 0.0 | 0.0 | 0.00 | 0.00 | 0.00 | 33 | 998.1 |
| 20260502211521 | 78 | 114 | 0.0 | 1.0 | 0.00 | 0.00 | 0.00 | 32 | 998.3 |
| 20260502210015 | 78 | 116 | 0.0 | 0.0 | 0.00 | 0.00 | 0.00 | 32 | 998.5 |
| 20260502204514 | 78 | 325 | 0.0 | 1.0 | 0.00 | 0.00 | 0.00 | 33 | 998.7 |
| 20260502203013 | 78 | 311 | 0.0 | 1.0 | 0.00 | 0.00 | 0.00 | 34 | 998.8 |
| 20260502201513 | 78 | 359 | 0.0 | 10.0 | 0.00 | 0.00 | 0.00 | 33 | 999.0 |
| 20260502200012 | 79 | 359 | 0.0 | 1.0 | 0.00 | 0.00 | 0.00 | 32 | 999.1 |
| 20260502194509 | 77 | 307 | 0.0 | 1.0 | 0.00 | 0.00 | 0.00 | 35 | 999.2 |
| 20260502193012 | 78 | 322 | 0.0 | 6.0 | 0.00 | 0.00 | 0.00 | 32 | 999.4 |
| 20260502191508 | 76 | 312 | 0.0 | 1.0 | 0.00 | 0.00 | 0.00 | 33 | 999.5 |
| 20260502190010 | 76 | 326 | 0.0 | 1.0 | 0.00 | 0.00 | 0.00 | 33 | 999.7 |
| 20260502184511 | 76 | 218 | 0.0 | 2.0 | 0.00 | 0.00 | 0.00 | 33 | 999.9 |
| 20260502183006 | 77 | 226 | 0.0 | 2.0 | 0.00 | 0.00 | 0.00 | 31 | 1000.0 |
| 20260502181504 | 77 | 320 | 0.0 | 1.0 | 0.00 | 0.00 | 0.00 | 32 | 1000.2 |
| 20260502163055 | 72 | 210 | 0.0 | 1.0 | 0.00 | 0.00 | 0.00 | 38 | 1001.1 |
| 20260502161554 | 71 | 309 | 0.0 | 1.0 | 0.00 | 0.00 | 0.00 | 40 | 1000.9 |
| 20260502151539 | 67 | 285 | 0.0 | 1.0 | 0.00 | 0.00 | 0.00 | 51 | 1000.9 |
| 20260502123107 | 53 | 243 | 0.0 | 1.0 | 0.00 | 0.00 | 0.00 | 87 | 999.4 |
| 20260502121602 | 53 | 189 | 0.0 | 1.0 | 0.00 | 0.00 | 0.00 | 87 | 999.2 |
| 20260502120112 | 53 | 190 | 0.0 | 1.0 | 0.00 | 0.00 | 0.00 | 87 | 998.9 |
| 20260502114601 | 53 | 193 | 0.0 | 1.0 | 0.00 | 0.00 | 0.00 | 86 | 998.7 |
| 20260502113053 | 53 | 191 | 0.0 | 1.0 | 0.00 | 0.00 | 0.00 | 85 | 998.5 |
| 20260502111558 | 53 | 198 | 0.0 | 1.0 | 0.00 | 0.00 | 0.00 | 86 | 998.2 |
| 20260502110051 | 52 | 204 | 0.0 | 1.0 | 0.00 | 0.00 | 0.00 | 87 | 998.1 |
| 20260502104554 | 52 | 227 | 0.0 | 2.0 | 0.00 | 0.00 | 0.00 | 87 | 998.3 |
| 20260502103047 | 52 | 216 | 0.0 | 1.0 | 0.00 | 0.00 | 0.00 | 85 | 998.0 |
| 20260502101548 | 53 | 193 | 0.0 | 1.0 | 0.00 | 0.00 | 0.00 | 84 | 997.9 |
| 20260502070038 | 54 | 243 | 0.0 | 1.0 | 0.00 | 0.00 | 0.00 | 82 | 997.8 |
| 20260502064540 | 54 | 204 | 0.0 | 1.0 | 0.00 | 0.00 | 0.00 | 83 | 998.0 |
| 20260502063033 | 54 | 216 | 0.0 | 1.0 | 0.00 | 0.00 | 0.00 | 84 | 998.0 |
| 20260502061533 | 54 | 221 | 0.0 | 1.0 | 0.00 | 0.00 | 0.00 | 84 | 998.0 |
| 20260502060034 | 54 | 202 | 0.0 | 1.0 | 0.00 | 0.00 | 0.00 | 84 | 997.8 |
| 20260502054530 | 54 | 283 | 0.0 | 1.0 | 0.00 | 0.00 | 0.00 | 84 | 997.9 |
| 20260502053027 | 54 | 242 | 0.0 | 1.0 | 0.00 | 0.00 | 0.00 | 83 | 997.9 |
| 20260502051545 | 55 | 297 | 0.0 | 0.0 | 0.00 | 0.00 | 0.00 | 82 | 998.0 |
| 20260502050024 | 55 | 43 | 0.0 | 1.0 | 0.00 | 0.00 | 0.00 | 81 | 997.9 |
| 20260502044521 | 56 | 171 | 0.0 | 0.0 | 0.00 | 0.00 | 0.00 | 80 | 997.8 |
| 20260502043022 | 57 | 359 | 0.0 | 0.0 | 0.00 | 0.00 | 0.00 | 78 | 997.7 |
| 20260502041520 | 57 | 18 | 0.0 | 0.0 | 0.00 | 0.00 | 0.00 | 77 | 997.6 |
| 20260502040020 | 57 | 11 | 0.0 | 0.0 | 0.00 | 0.00 | 0.00 | 78 | 997.7 |
| 20260502034535 | 57 | 218 | 0.0 | 0.0 | 0.00 | 0.00 | 0.00 | 77 | 997.8 |
| 20260502033024 | 58 | 359 | 0.0 | 0.0 | 0.00 | 0.00 | 0.00 | 76 | 997.7 |
| 20260502031515 | 58 | 299 | 0.0 | 0.0 | 0.00 | 0.00 | 0.00 | 75 | 997.4 |
| 20260502030015 | 58 | 123 | 0.0 | 0.0 | 0.00 | 0.00 | 0.00 | 75 | 997.5 |
| 20260502024513 | 58 | 225 | 0.0 | 0.0 | 0.00 | 0.00 | 0.00 | 75 | 997.2 |
| 20260502023015 | 59 | 295 | 0.0 | 1.0 | 0.00 | 0.00 | 0.00 | 75 | 997.2 |
| 20260502021510 | 59 | 98 | 0.0 | 0.0 | 0.00 | 0.00 | 0.00 | 76 | 997.1 |